Weather in Chirpan

Bulgaria     42°11′55″N   25°19′46″E
temp.,
°C
wind,
m/s
gust,
m/s
humid.,
%
clouds,
%
prec.,
mm/h
press.,
hPa
HPBL,
m
6 may, thu
thu600:00+13ene2388100 0.4 101039
03:00+12wnw2394100 0.9 101135
06:00+11nw1195100 0.4 101211
09:00+15w22830 0.4 1014276
12:00+20w23567 0.0 10141148
15:00+23wsw03440 0.0 10131626
18:00+22sse565715 0.0 1013497
21:00+16ene45715 0.1 101460
7 may, fri
fri700:00+14ene47791 0.0 1015107
03:00+13ene33841 0.0 101442
06:00+11ene2291100 0.0 101416
09:00+16ene1274100 0.0 1015329
12:00+21ese2260100 0.0 1014757
15:00+23e3453100 0.0 1012935
18:00+24e3559100 0.0 1009764
21:00+18ne3473100 0.0 101057
8 may, sat
sat800:00+16n2278100 0.0 101013
03:00+14wnw11860 0.0 101011
06:00+13wnw22894 0.0 101014
09:00+18wnw226863 0.0 1011298
12:00+22n2252100 0.0 10131492
15:00+20n1355100 0.1 1014661
18:00+17ne3561100 0.1 1016261
21:00+15ene366166 0.1 1019246
9 may, sun
sun900:00+11ese367094 0.0 1023425
03:00+10e247098 0.0 1024353
06:00+9ene127555 0.0 1026112
09:00+12ese236998 0.0 1027575
12:00+16e455065 0.0 10271379
15:00+17e554790 0.0 10251555
18:00+17ese555031 0.0 10241362
21:00+11ene511690 0.0 1026277
10 may, mon
mon1000:00+7ene48760 0.0 1027171
03:00+6ene22800 0.0 102733
06:00+5e00860 0.0 102610
09:00+11e01650 0.0 1026413
12:00+16ese33420 0.0 1025980
15:00+18e44400 0.0 10221177
18:00+18e44470 0.0 10211100
21:00+10ene49720 0.0 1022176